Wind_Speed
42 45 49 52 55 58 60 62 63 64 67 69 72 73 76 75 74 78 81 83 85 89 92 91 90 89 89 84 83 86 89 88 86 81 79 75 70 70 69 67 68 70 74
49 52 54 55 57 60 63 66 68 68 70 71 72 76 76 76 78 82 84 86 89 90 89 88 89 88 81 82 85 87 86 83 81 76 71 68 66 65 64 64 62 63 63
52 55 57 59 60 62 66 68 71 72 73 72 74 75 77 80 83 84 87 89 89 88 87 88 84 80 81 83 84 83 82 78 76 73 69 68 66 66 64 63 64 62 62
55 58 61 62 64 65 67 69 72 72 73 74 74 77 80 84 86 87 88 87 86 86 85 80 79 81 82 83 82 80 77 74 73 72 70 68 68 68 68 67 63 61 59
57 59 61 64 67 68 68 67 70 72 73 74 76 80 83 86 87 88 86 85 85 83 79 79 80 82 82 81 79 76 74 73 72 72 70 68 67 67 66 63 62 57 52
60 59 61 65 67 68 68 69 71 71 73 75 79 83 84 86 86 85 86 85 83 77 76 79 81 82 80 78 76 74 73 72 71 72 70 70 68 69 66 60 56 54 49
57 60 65 66 65 68 67 69 69 71 75 78 81 83 85 84 84 84 85 83 78 77 78 81 80 79 78 74 72 71 70 71 72 73 70 69 68 67 64 58 54 51 50
59 62 63 65 67 68 68 66 70 75 76 79 81 83 82 83 84 84 82 77 76 78 79 79 78 76 72 71 69 68 68 69 68 68 69 68 66 64 62 58 54 49 47
59 60 66 68 70 67 67 71 73 75 78 79 79 78 80 81 82 79 77 76 77 78 78 76 74 70 70 69 70 70 67 68 69 68 66 64 63 61 59 56 51 49 43
64 69 72 68 65 68 69 71 74 76 76 75 76 79 79 79 77 76 77 76 77 77 74 71 69 68 68 68 68 68 68 68 67 67 61 58 57 54 52 50 46 42 39
69 67 65 66 66 68 71 72 72 73 74 75 76 78 76 74 74 76 76 76 74 72 69 68 67 66 65 66 68 68 69 69 70 69 59 53 51 48 44 40 39 37 34
63 66 67 67 68 69 70 71 72 73 74 76 77 74 72 73 74 75 75 73 71 69 68 67 66 65 64 64 67 68 70 72 73 67 57 51 48 40 39 37 36 36 36
68 67 66 66 68 69 69 71 71 73 75 75 73 71 72 72 72 72 71 70 70 69 68 68 66 65 64 64 66 68 71 74 73 62 53 48 41 39 37 35 35 33 34
65 65 66 67 67 67 69 72 74 75 72 71 72 72 71 70 69 70 70 69 69 70 69 68 67 67 65 67 68 70 73 75 69 56 50 45 39 38 36 33 31 30 30
66 66 66 67 67 70 73 74 73 70 72 72 70 70 69 68 68 69 68 68 70 72 72 71 71 69 69 69 70 72 75 73 60 50 46 40 37 35 33 31 30 29 29
66 67 68 70 73 74 71 69 69 70 69 69 69 69 68 68 69 70 70 71 73 74 75 75 76 74 72 72 74 74 73 64 52 45 43 38 36 33 31 30 29 30 30
67 70 72 73 71 68 69 69 69 69 68 68 69 68 68 69 70 71 72 73 74 77 79 83 83 79 78 79 79 73 62 52 48 42 40 37 35 32 31 29 29 31 31
69 68 68 68 69 69 69 69 68 68 68 68 67 67 68 69 72 74 76 78 80 82 85 84 84 87 86 81 72 59 50 49 45 40 38 35 33 30 29 28 29 29 30
66 68 68 67 68 69 69 68 67 66 66 66 67 68 70 71 74 77 80 84 86 86 87 88 84 73 68 61 56 58 54 47 42 38 35 33 31 27 27 28 28 29 28
66 66 68 69 70 69 67 66 65 65 66 67 68 69 72 74 77 80 83 85 85 86 87 75 75 73 68 66 61 54 47 43 38 35 32 31 28 26 27 27 26 27 28
67 68 69 69 67 66 65 65 65 66 67 68 70 73 75 76 78 81 84 83 85 85 74 74 69 70 65 59 51 43 39 37 34 31 29 27 25 25 25 24 24 25 25
68 67 66 65 64 64 65 66 67 67 68 70 72 73 76 79 79 82 82 83 83 72 69 67 66 64 55 44 37 33 32 31 30 27 25 23 22 21 22 22 23 23 24
61 60 60 62 64 65 65 66 67 69 72 73 74 76 78 78 79 80 80 79 69 65 61 61 59 46 35 28 25 26 26 27 25 23 20 19 19 17 18 20 21 22 23
58 60 61 61 63 65 64 65 68 71 72 72 74 75 78 79 79 78 73 66 60 55 54 54 41 32 25 18 19 21 23 23 21 17 16 16 14 14 16 17 19 20 21
54 58 61 62 63 64 66 66 66 67 68 72 76 78 77 80 76 67 59 54 53 46 43 39 26 19 13 14 17 19 19 18 16 14 13 12 10 12 14 16 18 19 20
56 59 62 64 65 68 67 66 67 70 73 75 77 79 77 71 63 56 48 48 44 38 32 26 17 11 11 13 15 16 16 16 14 12 11 9 9 10 13 15 17 19 20
Wind_Direction
280 282 284 285 285 285 285 285 288 291 293 293 293 295 297 297 299 301 302 301 302 304 303 303 302 303 305 303 304 305 304 304 304 302 299 295 292 288 285 283 279 274 270
280 281 283 286 287 288 288 289 290 292 293 294 295 296 297 299 301 302 303 302 302 302 302 303 305 305 304 305 306 305 305 305 304 302 299 295 294 291 289 286 284 281 277
284 284 287 288 289 291 291 292 291 292 293 295 296 297 299 300 302 302 302 302 302 303 304 306 306 304 305 306 305 305 306 305 302 301 299 297 295 292 290 289 288 285 282
287 287 289 290 290 290 290 290 290 292 294 296 298 299 300 300 301 300 300 301 302 304 306 306 305 305 305 305 305 306 305 303 301 300 298 297 295 292 291 289 287 287 284
288 288 289 289 288 290 290 290 291 293 295 297 299 299 300 299 298 299 300 301 303 306 305 304 305 305 305 305 306 305 303 301 301 300 300 298 296 295 293 291 290 286 281
289 288 286 286 288 289 289 290 292 294 296 297 298 298 298 298 299 300 301 303 305 304 304 304 304 305 305 306 306 305 304 303 303 303 303 302 300 299 298 296 293 289 280
283 282 283 284 286 285 287 289 292 295 297 298 298 297 297 298 299 301 303 304 303 304 303 303 303 305 305 306 304 304 306 307 307 307 306 304 302 300 299 297 294 290 286
279 280 282 281 281 284 286 293 294 296 296 295 295 296 297 298 300 301 302 301 302 302 303 303 304 306 305 305 305 305 307 307 308 308 308 306 303 301 299 297 294 290 287
278 275 275 277 280 288 294 295 294 293 293 293 294 295 297 298 300 300 300 301 302 301 303 305 306 306 305 305 306 306 308 309 311 312 311 308 306 305 301 297 293 291 287
269 271 276 285 290 292 292 290 291 291 293 294 294 295 297 298 297 298 299 300 301 302 305 305 306 307 307 306 306 307 310 312 313 316 312 307 306 304 301 298 295 292 288
273 279 285 290 290 289 288 289 290 291 291 292 295 296 295 294 295 297 299 300 302 305 306 307 308 308 308 307 308 310 313 316 317 317 312 308 307 305 302 298 295 294 290
280 286 289 289 287 288 290 291 290 290 292 294 295 294 294 294 296 298 299 302 305 306 308 308 307 308 309 308 309 311 313 316 317 316 311 308 308 302 301 300 298 297 297
287 288 288 288 289 289 290 289 290 292 293 293 292 292 294 295 297 298 301 304 306 308 307 307 308 308 308 307 308 310 312 314 314 310 307 306 303 303 301 298 297 297 299
287 288 288 288 288 289 289 290 291 292 291 289 291 292 293 295 298 300 304 305 307 307 306 307 309 308 307 306 306 309 311 311 309 304 304 303 301 303 301 297 296 300 302
287 287 287 287 288 289 290 290 290 288 289 290 291 293 295 298 300 302 303 304 305 305 305 305 308 307 304 303 304 306 308 307 303 299 301 299 300 300 299 297 298 302 304
285 286 286 288 288 288 287 286 287 289 290 292 293 295 298 299 301 302 304 304 304 304 304 304 304 303 300 300 302 303 303 301 296 294 296 294 297 297 295 295 297 300 301
284 285 286 285 285 285 286 288 290 291 292 294 295 297 299 300 301 302 303 304 306 305 303 303 304 302 300 299 300 298 296 293 292 288 291 290 293 293 291 290 293 296 298
283 283 283 284 286 288 289 290 291 292 293 294 296 297 298 299 300 301 302 304 306 305 304 303 302 300 298 296 294 294 290 287 286 282 283 286 288 289 289 291 294 297 296
282 283 285 286 287 288 289 290 291 292 294 295 296 296 297 298 299 301 302 304 304 304 303 302 301 298 296 294 291 289 286 280 278 275 275 282 284 286 289 292 296 298 299
282 284 286 286 286 288 289 291 292 294 294 295 295 294 294 296 299 301 303 304 303 303 303 302 300 298 294 291 288 282 274 268 268 266 267 276 279 284 289 293 297 300 300
284 284 285 287 287 289 291 293 294 295 295 294 294 293 295 297 299 302 302 302 302 305 303 303 300 299 294 289 281 275 263 256 256 257 263 269 274 283 289 294 300 304 302
281 283 285 287 290 291 293 294 294 294 293 292 292 294 296 299 300 303 303 304 306 305 306 304 303 301 294 283 270 259 249 245 245 248 258 264 273 283 291 298 303 308 308
285 287 288 289 290 291 292 293 293 291 289 290 292 295 297 298 301 302 305 306 306 308 308 308 307 301 293 274 253 239 233 233 235 244 250 260 272 285 292 300 305 310 312
286 286 287 288 290 292 292 291 289 288 290 292 295 296 298 299 300 305 306 306 307 309 310 311 307 297 282 252 229 219 220 223 230 232 244 260 275 286 297 304 311 313 314
285 288 291 292 292 291 295 294 291 291 292 293 295 297 298 300 303 303 303 303 308 308 309 314 303 290 262 227 214 212 212 221 218 224 239 256 276 293 303 312 316 319 321
291 300 301 297 293 293 292 291 291 292 293 294 295 298 300 301 300 299 298 303 304 303 305 306 301 273 241 222 208 208 211 209 213 221 235 256 282 299 311 318 321 321 322
Height
5748 5747 5745 5742 5740 5737 5732 5728 5723 5718 5712 5707 5701 5696 5690 5683 5674 5666 5657 5647 5638 5629 5619 5609 5599 5590 5580 5571 5561 5550 5540 5530 5524 5528 5513 5503 5499 5491 5485 5481 5479 5477 5476
5736 5734 5731 5728 5724 5720 5717 5713 5708 5701 5695 5689 5684 5678 5670 5663 5655 5646 5637 5627 5616 5606 5597 5589 5579 5570 5561 5552 5542 5531 5520 5508 5500 5500 5492 5483 5476 5469 5464 5460 5458 5456 5453
5722 5718 5715 5712 5708 5704 5700 5697 5691 5684 5678 5672 5666 5659 5651 5643 5635 5626 5616 5606 5596 5587 5577 5568 5559 5551 5541 5532 5523 5512 5501 5491 5481 5474 5473 5463 5457 5448 5446 5442 5438 5436 5431
5706 5703 5700 5696 5692 5687 5682 5678 5673 5666 5661 5654 5647 5639 5631 5623 5615 5606 5596 5586 5577 5567 5557 5548 5540 5532 5523 5514 5504 5494 5484 5475 5466 5458 5453 5447 5438 5431 5424 5419 5421 5414 5410
5690 5686 5682 5678 5674 5669 5664 5659 5654 5649 5643 5636 5628 5621 5612 5603 5595 5585 5576 5567 5558 5549 5539 5530 5521 5513 5503 5493 5485 5476 5468 5458 5449 5440 5434 5427 5418 5411 5404 5401 5396 5394 5390
5673 5670 5665 5660 5656 5652 5647 5642 5637 5631 5625 5617 5609 5601 5592 5583 5574 5565 5557 5548 5539 5530 5522 5512 5503 5494 5484 5475 5467 5458 5449 5439 5431 5420 5415 5405 5399 5389 5383 5380 5376 5371 5370
5657 5654 5649 5644 5639 5635 5630 5625 5620 5614 5606 5598 5591 5581 5572 5562 5554 5546 5536 5528 5520 5512 5504 5496 5487 5477 5468 5460 5451 5442 5433 5423 5410 5401 5393 5385 5379 5370 5364 5361 5357 5352 5347
5641 5637 5632 5627 5623 5619 5614 5608 5601 5594 5587 5580 5571 5563 5554 5542 5535 5527 5518 5510 5502 5494 5486 5478 5469 5461 5451 5443 5435 5427 5420 5410 5399 5389 5376 5368 5360 5353 5346 5341 5337 5336 5333
5625 5620 5615 5611 5607 5601 5596 5590 5583 5576 5569 5561 5552 5544 5536 5524 5515 5507 5499 5493 5486 5477 5470 5461 5452 5444 5434 5427 5418 5412 5405 5394 5385 5373 5362 5352 5343 5336 5328 5324 5321 5317 5318
5607 5602 5599 5595 5590 5584 5578 5572 5565 5557 5549 5542 5535 5526 5516 5508 5497 5490 5482 5476 5468 5460 5453 5444 5436 5428 5419 5410 5401 5395 5388 5379 5370 5361 5351 5341 5332 5324 5316 5309 5305 5303 5302
5590 5586 5582 5577 5571 5566 5560 5553 5545 5538 5531 5524 5517 5508 5499 5490 5480 5473 5466 5459 5452 5445 5437 5428 5420 5412 5404 5394 5385 5377 5369 5362 5354 5344 5337 5329 5321 5313 5306 5300 5295 5292 5292
5573 5569 5564 5559 5553 5547 5539 5532 5526 5519 5512 5505 5497 5489 5481 5473 5466 5457 5449 5440 5434 5429 5421 5413 5405 5398 5390 5380 5370 5363 5354 5346 5338 5330 5322 5316 5310 5303 5297 5292 5288 5284 5280
5555 5550 5544 5538 5532 5525 5518 5512 5506 5498 5492 5485 5478 5472 5465 5456 5449 5441 5433 5425 5417 5410 5404 5398 5391 5384 5376 5367 5357 5349 5341 5332 5323 5317 5311 5304 5298 5293 5288 5285 5280 5277 5273
5533 5528 5523 5517 5511 5505 5499 5492 5486 5478 5472 5466 5461 5454 5447 5440 5431 5423 5417 5409 5402 5395 5388 5382 5375 5368 5359 5351 5343 5334 5326 5318 5310 5303 5299 5294 5289 5284 5279 5276 5273 5270 5267
5511 5507 5503 5498 5493 5487 5480 5473 5467 5461 5455 5448 5441 5434 5428 5422 5414 5408 5401 5393 5386 5378 5371 5366 5359 5351 5342 5333 5326 5320 5311 5303 5296 5291 5286 5282 5279 5275 5271 5267 5264 5261 5259
5493 5489 5484 5479 5473 5467 5460 5454 5449 5443 5435 5429 5423 5416 5409 5403 5397 5390 5383 5377 5369 5360 5354 5349 5344 5334 5326 5317 5310 5303 5295 5288 5282 5279 5276 5272 5269 5266 5263 5259 5256 5253 5251
5474 5469 5464 5459 5454 5448 5442 5436 5431 5424 5418 5411 5404 5398 5392 5387 5379 5372 5365 5358 5352 5341 5332 5324 5317 5310 5302 5295 5289 5284 5279 5274 5270 5267 5265 5262 5259 5256 5253 5251 5248 5245 5243
5455 5450 5445 5439 5433 5428 5423 5417 5411 5405 5399 5394 5388 5381 5375 5369 5362 5354 5345 5337 5332 5323 5312 5303 5293 5285 5277 5270 5266 5264 5262 5260 5257 5256 5254 5252 5249 5247 5245 5242 5239 5237 5235
5435 5430 5426 5420 5415 5410 5405 5399 5393 5388 5382 5377 5371 5364 5358 5351 5343 5335 5326 5317 5309 5300 5290 5281 5271 5261 5253 5249 5247 5246 5245 5244 5244 5244 5243 5241 5239 5238 5236 5234 5231 5228 5226
5416 5412 5407 5401 5396 5392 5387 5382 5377 5371 5366 5360 5354 5348 5341 5335 5327 5317 5307 5297 5286 5277 5266 5254 5246 5238 5231 5227 5225 5224 5226 5228 5230 5231 5232 5231 5230 5229 5228 5225 5223 5220 5217
5396 5392 5388 5384 5377 5373 5369 5364 5359 5353 5348 5342 5336 5329 5322 5316 5308 5299 5289 5278 5267 5256 5243 5232 5222 5214 5206 5202 5202 5205 5208 5212 5216 5219 5222 5221 5221 5221 5219 5217 5215 5212 5209
5377 5373 5368 5365 5360 5356 5351 5346 5341 5335 5329 5323 5317 5310 5303 5296 5287 5278 5267 5256 5244 5233 5223 5212 5201 5191 5183 5181 5183 5189 5194 5199 5204 5209 5211 5212 5212 5213 5211 5209 5207 5204 5201
5359 5355 5351 5347 5342 5338 5333 5328 5323 5317 5310 5304 5298 5291 5284 5275 5267 5257 5247 5236 5225 5215 5205 5194 5183 5174 5169 5168 5172 5177 5184 5190 5196 5200 5203 5204 5205 5205 5204 5202 5200 5197 5194
5342 5338 5333 5329 5325 5320 5315 5309 5303 5297 5291 5284 5278 5271 5264 5256 5247 5239 5229 5219 5210 5201 5192 5182 5172 5166 5163 5163 5166 5172 5178 5184 5189 5193 5196 5197 5197 5198 5197 5195 5193 5190 5187
5325 5321 5317 5312 5306 5301 5295 5289 5283 5277 5271 5265 5258 5251 5243 5236 5228 5220 5213 5206 5198 5190 5183 5175 5167 5164 5162 5162 5165 5170 5175 5180 5184 5187 5189 5190 5191 5191 5191 5189 5187 5184 5182
5307 5303 5298 5292 5287 5281 5275 5270 5264 5259 5252 5245 5238 5230 5223 5216 5210 5204 5199 5193 5187 5182 5177 5172 5167 5164 5163 5164 5166 5169 5173 5177 5180 5182 5184 5185 5185 5186 5184 5183 5182 5179 5177